Hourly Data Report for September 28, 2022

MOUNT FOREST (AUT)
ONTARIO
Current Station Operator: ECCC - MSC

43°59'00.000" N
80°45'00.000" W
414.50 m
6145504
71631
WLS

Download Data

Hourly Data (September 2022)
Hourly Data Report for September 28, 2022
TIME
LST
Temp Definition
°C
Dew Point Definition
°C
Rel Hum Definition
%
Precip. Amount Definition
mm

Wind Dir Definition
10's deg

Wind Spd Definition
km/h
Visibility Definition
km
Stn Press Definition
kPa
Hmdx Definition


Wind Chill Definition


Weather Definition


00:00 9.7 9.0 95 0.0 34 9   96.83     LegendNANA
01:00 9.6 8.7 94 0.0 34 11   96.87     LegendNANA
02:00 9.4 8.4 94 0.0 34 12   96.92     LegendNANA
03:00 9.0 8.0 94 0.0 35 11   96.98     LegendNANA
04:00 8.6 8.0 96 0.0 35 11   97.04     LegendNANA
05:00 8.3 7.9 97 0.0 34 8   97.12     LegendNANA
06:00 8.2 7.9 98 0.0 34 9   97.21     LegendNANA
07:00 8.3 7.9 97 0.0 35 11   97.30     LegendNANA
08:00 8.7 7.7 94 0.0 35 13   97.37     LegendNANA
09:00 9.8 7.4 85 0.0 1 14   97.45     LegendNANA
10:00 8.9 7.8 93 0.0 36 17   97.56     LegendNANA
11:00 10.1 7.4 83 0.0 1 18   97.61     LegendNANA
12:00 9.5 6.8 83 0.0 36 17   97.69     LegendNANA
13:00 9.2 6.0 80 0.0 35 16   97.76     LegendNANA
14:00 9.2 6.3 82 0.0 35 16   97.78     LegendNANA
15:00 9.7 6.1 78 0.0 1 14   97.83     LegendNANA
16:00 9.2 6.2 81 0.0 35 10   97.87     LegendNANA
17:00 8.9 6.1 83 0.0 34 13   97.91     LegendNANA
18:00 8.7 5.5 81 0.0 35 9   97.96     LegendNANA
19:00 8.4 5.7 83 0.0 34 9   98.00     LegendNANA
20:00 8.1 5.5 84 0.0 35 8   98.06     LegendNANA
21:00 7.9 4.7 80 0.0 35 9   98.12     LegendNANA
22:00 7.7 4.3 79 0.0 34 5   98.16     LegendNANA
23:00 8.0 3.9 76 0.0 33 5   98.15     LegendNANA

Notes on Data Quality.

Legend

  • E = Estimated
  • M = Missing
  • NA = Not Available*
  • [empty] = Indicates an unobserved value
Date modified: